When you browse on this site, cookies collect data to enhance your experience and personalize the content and advertising you see.
Visit our Privacy Policy to learn more. By continuing to use the site, you agree to this use of cookies and data.
  • In Hungary
  • List of Countries
  • For 7 days
  • Water Temperature
  • Weather Map
  • News
  • Weather Widgets
  • user-avatar
    Login

    Hourly Weather Velbert

    Today, 11 December, Wednesday

    Time Temperature Precipitation Wind Pressure Humidity
    00:00 +2°C° 0 mm 7 mps 737 mmHg 52%
    01:00 +2°C° 0.2 mm 6 mps 736 mmHg 57%
    02:00 +2°C° 0.2 mm 6 mps 736 mmHg 63%
    03:00 +2°C° 0.2 mm 6 mps 735 mmHg 68%
    04:00 +1°C° 0.6 mm 5 mps 735 mmHg 75%
    05:00 +1°C° 0.6 mm 4 mps 735 mmHg 82%
    06:00 +2°C° 0 mm 3 mps 735 mmHg 86%
    07:00 +2°C° 0.7 mm 3 mps 734 mmHg 87%
    08:00 +2°C° 0.7 mm 3 mps 734 mmHg 89%
    09:00 +2°C° 0.7 mm 3 mps 734 mmHg 91%
    10:00 +2°C° 0.5 mm 3 mps 733 mmHg 91%
    11:00 +2°C° 0.5 mm 3 mps 733 mmHg 91%
    12:00 +2°C° 0.5 mm 3 mps 732 mmHg 90%
    13:00 +3°C° 0.4 mm 2 mps 732 mmHg 91%
    14:00 +3°C° 0.4 mm 2 mps 731 mmHg 91%
    15:00 +3°C° 0.4 mm 2 mps 731 mmHg 91%
    16:00 +3°C° 0.1 mm 2 mps 731 mmHg 92%
    17:00 +3°C° 0.1 mm 2 mps 731 mmHg 92%
    18:00 +3°C° 0.1 mm 2 mps 731 mmHg 93%
    19:00 +3°C° 0 mm 2 mps 730 mmHg 93%
    20:00 +3°C° 0 mm 2 mps 730 mmHg 92%
    21:00 +3°C° 0 mm 2 mps 730 mmHg 92%
    22:00 +3°C° 0 mm 2 mps 730 mmHg 91%
    23:00 +3°C° 0 mm 2 mps 730 mmHg 89%

    Tomorrow, 12 December, Thursday

    Time Temperature Precipitation Wind Pressure Humidity
    00:00 +2°C° 0 mm 3 mps 729 mmHg 87%
    01:00 +2°C° 0 mm 3 mps 729 mmHg 88%
    02:00 +2°C° 0 mm 3 mps 729 mmHg 88%
    03:00 +1°C° 0 mm 3 mps 728 mmHg 89%
    04:00 +2°C° 0.1 mm 3 mps 728 mmHg 89%
    05:00 +2°C° 0.1 mm 3 mps 728 mmHg 90%
    06:00 +2°C° 0.1 mm 3 mps 729 mmHg 91%
    07:00 +2°C° 0.1 mm 3 mps 729 mmHg 90%
    08:00 +2°C° 0.1 mm 3 mps 728 mmHg 89%
    09:00 0°C° 0.1 mm 4 mps 728 mmHg 88%
    10:00 +1°C° 0 mm 4 mps 728 mmHg 83%
    11:00 +1°C° 0 mm 4 mps 728 mmHg 78%
    12:00 +3°C° 0 mm 4 mps 728 mmHg 74%
    13:00 +1°C° 0 mm 4 mps 727 mmHg 74%
    14:00 +1°C° 0 mm 4 mps 726 mmHg 75%
    15:00 +1°C° 0 mm 4 mps 726 mmHg 75%
    16:00 0°C° 0 mm 4 mps 725 mmHg 75%
    17:00 0°C° 0 mm 5 mps 724 mmHg 75%
    18:00 0°C° 0 mm 5 mps 724 mmHg 75%
    19:00 -1°C° 0 mm 6 mps 722 mmHg 74%
    20:00 -1°C° 0 mm 6 mps 721 mmHg 74%
    21:00 -1°C° 0 mm 7 mps 719 mmHg 73%
    22:00 -1°C° 0.2 mm 7 mps 718 mmHg 75%
    23:00 -1°C° 0.2 mm 8 mps 717 mmHg 76%

    Day after tomorrow, 13 December, Friday

    Time Temperature Precipitation Wind Pressure Humidity
    00:00 -1°C° 0.2 mm 8 mps 715 mmHg 78%
    01:00 -1°C° 0.6 mm 8 mps 714 mmHg 82%
    02:00 -1°C° 0.6 mm 8 mps 712 mmHg 85%
    03:00 -1°C° 0.6 mm 7 mps 711 mmHg 89%
    04:00 0°C° 0.8 mm 7 mps 710 mmHg 89%
    05:00 +1°C° 0.8 mm 6 mps 709 mmHg 89%
    06:00 +1°C° 0.8 mm 6 mps 708 mmHg 90%
    07:00 +2°C° 0.4 mm 5 mps 708 mmHg 90%
    08:00 +3°C° 0.4 mm 4 mps 708 mmHg 89%
    09:00 +3°C° 0.4 mm 4 mps 708 mmHg 89%
    10:00 +3°C° 0.3 mm 4 mps 709 mmHg 88%
    11:00 +2°C° 0.3 mm 5 mps 709 mmHg 87%
    12:00 +2°C° 0.3 mm 5 mps 710 mmHg 86%
    13:00 +2°C° 0.2 mm 5 mps 711 mmHg 87%
    14:00 +2°C° 0.2 mm 5 mps 712 mmHg 87%
    15:00 +2°C° 0.2 mm 5 mps 712 mmHg 87%
    16:00 +2°C° 0.3 mm 5 mps 713 mmHg 86%
    17:00 +2°C° 0.3 mm 5 mps 714 mmHg 85%
    18:00 +2°C° 0.3 mm 5 mps 715 mmHg 83%
    19:00 +2°C° 0.1 mm 5 mps 716 mmHg 84%
    20:00 +2°C° 0.1 mm 5 mps 717 mmHg 84%
    21:00 +2°C° 0.1 mm 5 mps 718 mmHg 85%
    22:00 +3°C° 0.1 mm 5 mps 718 mmHg 84%
    23:00 +3°C° 0.1 mm 6 mps 719 mmHg 83%

    14 December, Saturday

    Time Temperature Precipitation Wind Pressure Humidity
    00:00 +3°C° 0.1 mm 6 mps 719 mmHg 83%
    01:00 +3°C° 0 mm 5 mps 719 mmHg 82%
    02:00 +2°C° 0 mm 5 mps 719 mmHg 82%
    03:00 +2°C° 0 mm 5 mps 719 mmHg 82%
    04:00 +2°C° 0.6 mm 6 mps 719 mmHg 82%
    05:00 +3°C° 0.6 mm 7 mps 718 mmHg 83%
    06:00 +4°C° 0.6 mm 8 mps 718 mmHg 83%
    07:00 +4°C° 0.1 mm 8 mps 718 mmHg 78%
    08:00 +4°C° 0.1 mm 8 mps 719 mmHg 73%
    09:00 +4°C° 0.1 mm 8 mps 719 mmHg 68%
    10:00 +3°C° 0.1 mm 9 mps 720 mmHg 65%
    11:00 +3°C° 0.1 mm 9 mps 721 mmHg 62%
    12:00 +3°C° 0.1 mm 9 mps 722 mmHg 58%
    13:00 +2°C° 0 mm 8 mps 722 mmHg 58%
    14:00 +3°C° 0 mm 7 mps 723 mmHg 59%
    15:00 +3°C° 0 mm 6 mps 724 mmHg 59%
    16:00 +3°C° 0.3 mm 5 mps 724 mmHg 68%
    17:00 +3°C° 0.3 mm 4 mps 724 mmHg 77%
    18:00 +3°C° 0.3 mm 3 mps 724 mmHg 86%
    19:00 +3°C° 0.6 mm 3 mps 724 mmHg 86%
    20:00 +3°C° 0.6 mm 4 mps 725 mmHg 86%
    21:00 +1°C° 0.6 mm 4 mps 725 mmHg 87%
    22:00 +1°C° 0 mm 4 mps 726 mmHg 86%
    23:00 +3°C° 0 mm 4 mps 726 mmHg 85%

    15 December, Sunday

    Time Temperature Precipitation Wind Pressure Humidity
    00:00 +3°C° 0 mm 4 mps 727 mmHg 84%
    01:00 +1°C° 0 mm 4 mps 727 mmHg 86%
    02:00 +2°C° 0 mm 3 mps 727 mmHg 88%
    03:00 +2°C° 0 mm 3 mps 727 mmHg 90%
    04:00 +1°C° 0 mm 4 mps 726 mmHg 88%
    05:00 +3°C° 0 mm 4 mps 725 mmHg 86%
    06:00 +3°C° 0 mm 5 mps 724 mmHg 84%
    07:00 +3°C° 0.4 mm 6 mps 724 mmHg 77%
    08:00 +3°C° 0.4 mm 7 mps 724 mmHg 70%
    09:00 +4°C° 0.4 mm 8 mps 724 mmHg 64%
    10:00 +3°C° 0 mm 9 mps 725 mmHg 61%
    11:00 +3°C° 0 mm 11 mps 726 mmHg 58%
    12:00 +3°C° 0 mm 12 mps 726 mmHg 55%
    13:00 +2°C° 0 mm 11 mps 728 mmHg 58%
    14:00 +2°C° 0 mm 9 mps 730 mmHg 61%
    15:00 +1°C° 0 mm 8 mps 731 mmHg 65%
    16:00 +1°C° 0 mm 6 mps 732 mmHg 65%
    17:00 +1°C° 0 mm 5 mps 733 mmHg 66%
    18:00 +2°C° 0 mm 3 mps 734 mmHg 67%
    19:00 +2°C° 0 mm 3 mps 734 mmHg 69%
    20:00 +1°C° 0 mm 4 mps 735 mmHg 72%
    21:00 +1°C° 0 mm 4 mps 735 mmHg 74%
    22:00 +1°C° 0 mm 4 mps 734 mmHg 73%
    23:00 +1°C° 0 mm 4 mps 734 mmHg 72%

    16 December, Monday

    Time Temperature Precipitation Wind Pressure Humidity
    00:00 +1°C° 0 mm 4 mps 734 mmHg 71%
    01:00 +1°C° 0 mm 4 mps 734 mmHg 74%
    02:00 +3°C° 0 mm 4 mps 734 mmHg 78%
    03:00 +2°C° 0 mm 5 mps 734 mmHg 81%
    04:00 +3°C° 0 mm 4 mps 733 mmHg 83%
    05:00 +3°C° 0 mm 4 mps 733 mmHg 85%
    06:00 +3°C° 0 mm 3 mps 733 mmHg 87%
    07:00 +3°C° 0 mm 3 mps 734 mmHg 87%
    08:00 +3°C° 0 mm 3 mps 734 mmHg 87%
    09:00 +3°C° 0 mm 3 mps 734 mmHg 87%
    10:00 +4°C° 0 mm 3 mps 734 mmHg 85%
    11:00 +5°C° 0 mm 3 mps 733 mmHg 82%
    12:00 +5°C° 0 mm 3 mps 733 mmHg 80%
    13:00 +5°C° 0.2 mm 3 mps 732 mmHg 81%
    14:00 +4°C° 0.2 mm 3 mps 732 mmHg 83%
    15:00 +4°C° 0.2 mm 3 mps 732 mmHg 85%
    16:00 +4°C° 0.4 mm 3 mps 731 mmHg 87%
    17:00 +5°C° 0.4 mm 2 mps 731 mmHg 89%
    18:00 +6°C° 0.4 mm 2 mps 730 mmHg 92%
    19:00 +6°C° 0.3 mm 2 mps 730 mmHg 92%
    20:00 +5°C° 0.3 mm 3 mps 730 mmHg 93%
    21:00 +7°C° 0.3 mm 3 mps 730 mmHg 93%
    22:00 +7°C° 1.5 mm 3 mps 729 mmHg 94%
    23:00 +7°C° 1.5 mm 3 mps 729 mmHg 94%
    Show more